STARLINK-11585, 63309

Orbit data source: Space-Track

STARLINK-11585, 63309 is a payload satellite owned by SpaceX/Seattle (US) in LEO that was launched on Tue, 18 Mar 2025 UTC via an FALCON 9 launch vehicle from the Air Force Eastern Test Range (AFETR). Payload-class satellites include a variety of spacecraft equipped with specific instruments for various scientific and technological missions. These include communications satellites like Starlink; space stations such as the ISS; scientific satellites like the Hubble; Earth observation satellites from companies like Planet Labs, Umbra, and HawkEye 360; GPS; miniature CubeSats for education and research; and military/defense satellites.

Loading next visibility...
Identifier
63309, 2025-057C
Orbit
LEO
Country
Flag of USUS
Related business
Manufacturer
SpaceX/Seattle
Mission
Operational Commercial Communications
Bus & Motor
STARLINK V2MD, Unknown motor
Mass
960 kg wet, ~910 kg dry
Launch date (UTC)
2025-03-18 (7 months ago)
Launch vehicle
FALCON 9
Launch site
Air Force Eastern Test Range (AFETR)
Object type
Payload
Rocket body
Debris
Shape & HBR
Box + 2 Pan, 18.1 m
Radar Cross Section
36.964 m², Large (>1 m²)

Expand to show TLE details & history
Last TLE update: 1 day ago

TLE from 1 day ago
0 STARLINK-11585
1 63309U 25057C   25296.56648919  .00244237  00000-0  18474-2 0  9990
2 63309  43.0002  10.8925 0001229 285.6721  74.4011 15.70892647 35646
Epoch: 2025-10-23T13:35Z
TLE epoch observation values (Epoch: 2025-10-23T13:35:44.666Z)
Latitude
Longitude
134.73249°
Altitude
355.893 km
Speed
7.698 km/s
True Right ascension
00h 43m 34s
True Declination
0° 00' 00"
Sunlit
Object was in full shadow at epoch
Visualization orbit readout
Latitude
Unknown
Longitude
Unknown
Altitude
Unknown
Speed
Unknown
Apparent Right ascension
Unknown
Apparent Declination
Unknown
Sunlit
N/A
Visualization observer readout
Local Sidereal Time
12:41:31
Azimuth
Unknown
Elevation
Unknown
Doppler factor
Unknown
Orbital elements
Apogee altitude
359.154 km
Perigee altitude
357.498 km
Semi-major axis
6,736.463 km
Eccentricity
0.00012
Inclination
43.0002°
RAAN
10.8925°
Arg. of periapsis
285.6721°
True anomaly
74.41467°
Mean anomaly
74.4011°
Eccentric anomaly
74.40788°
Mean motion
3.9255 °/min
Orbital period
91.71 mins
BSTAR
0.0018474
Loading maneuver chart data...
Computing Atmospheric mass density...
Loading historical data...
Loading historical data...
Loading historical data...
Loading historical data...
Loading historical data...
Loading historical data...
Loading historical data...

Documentation

Showing up to 5 results
|